| time (UTC) | temp F | wind direction | speed knots | gust knots | rain 1hr in | rain 24hr in | rain mn in | humidity % | barometer mb |
| 20260510162152 | 81 | 34 | 0.0 | 2.6 | 0.00 | 0.00 | 0.00 | 39 | 1015.8 |
| 20260510161647 | 79 | 143 | 4.3 | 7.0 | 0.00 | 0.00 | 0.00 | 39 | 1015.8 |
| 20260510161144 | 80 | 330 | 1.7 | 5.2 | 0.00 | 0.00 | 0.00 | 40 | 1015.7 |
| 20260510160641 | 81 | 60 | 3.5 | 7.0 | 0.00 | 0.00 | 0.00 | 40 | 1015.8 |
| 20260510160136 | 81 | 34 | 1.7 | 3.5 | 0.00 | 0.00 | 0.00 | 39 | 1015.7 |
| 20260510155632 | 81 | 152 | 3.5 | 4.3 | 0.00 | 0.00 | 0.00 | 39 | 1015.7 |
| 20260510155128 | 81 | 73 | 1.7 | 4.3 | 0.00 | 0.00 | 0.00 | 38 | 1016.0 |
| 20260510154624 | 80 | 355 | 1.7 | 4.3 | 0.00 | 0.00 | 0.00 | 42 | 1015.9 |
| 20260510154120 | 80 | 66 | 0.0 | 3.5 | 0.00 | 0.00 | 0.00 | 42 | 1015.7 |
| 20260510153615 | 80 | 117 | 5.2 | 7.0 | 0.00 | 0.00 | 0.00 | 43 | 1015.8 |
| 20260510153112 | 80 | 146 | 1.7 | 5.2 | 0.00 | 0.00 | 0.00 | 42 | 1015.9 |
| 20260510152609 | 81 | 350 | 0.0 | 4.3 | 0.00 | 0.00 | 0.00 | 43 | 1015.7 |
| 20260510152105 | 80 | 235 | 2.6 | 5.2 | 0.00 | 0.00 | 0.00 | 44 | 1015.9 |
| 20260510151602 | 79 | 218 | 4.3 | 7.0 | 0.00 | 0.00 | 0.00 | 44 | 1015.8 |
| 20260510151100 | 80 | 317 | 2.6 | 4.3 | 0.00 | 0.00 | 0.00 | 46 | 1016.0 |
| 20260510150559 | 78 | 150 | 2.6 | 6.1 | 0.00 | 0.00 | 0.00 | 45 | 1016.0 |
| 20260510150055 | 79 | 32 | 2.6 | 4.3 | 0.00 | 0.00 | 0.00 | 48 | 1016.0 |
| 20260510145552 | 78 | 135 | 1.7 | 7.0 | 0.00 | 0.00 | 0.00 | 45 | 1015.8 |
| 20260510145049 | 78 | 35 | 2.6 | 7.8 | 0.00 | 0.00 | 0.00 | 46 | 1016.0 |
| 20260510144545 | 78 | 73 | 1.7 | 5.2 | 0.00 | 0.00 | 0.00 | 49 | 1015.9 |
| 20260510144041 | 78 | 313 | 0.9 | 6.1 | 0.00 | 0.00 | 0.00 | 50 | 1016.0 |
| 20260510143537 | 77 | 166 | 3.5 | 6.1 | 0.00 | 0.00 | 0.00 | 48 | 1016.1 |
| 20260510143034 | 77 | 149 | 1.7 | 4.3 | 0.00 | 0.00 | 0.00 | 51 | 1016.2 |
| 20260510142530 | 78 | 145 | 2.6 | 6.1 | 0.00 | 0.00 | 0.00 | 50 | 1015.9 |
| 20260510142027 | 77 | 130 | 1.7 | 4.3 | 0.00 | 0.00 | 0.00 | 53 | 1015.9 |
| 20260510141523 | 76 | 46 | 2.6 | 5.2 | 0.00 | 0.00 | 0.00 | 58 | 1015.9 |
| 20260510141021 | 76 | 195 | 0.0 | 3.5 | 0.00 | 0.00 | 0.00 | 54 | 1015.8 |
| 20260510140518 | 78 | 137 | 0.0 | 3.5 | 0.00 | 0.00 | 0.00 | 54 | 1015.6 |
| 20260510140017 | 77 | 200 | 0.0 | 2.6 | 0.00 | 0.00 | 0.00 | 59 | 1015.6 |
| 20260510135513 | 77 | 149 | 0.0 | 2.6 | 0.00 | 0.00 | 0.00 | 59 | 1015.8 |
| 20260510135010 | 75 | 153 | 0.9 | 7.0 | 0.00 | 0.00 | 0.00 | 59 | 1015.5 |
| 20260510134507 | 75 | 238 | 4.3 | 4.3 | 0.00 | 0.00 | 0.00 | 62 | 1015.8 |
| 20260510134004 | 75 | 175 | 1.7 | 3.5 | 0.00 | 0.00 | 0.00 | 63 | 1015.8 |
| 20260510133459 | 75 | 203 | 0.0 | 2.6 | 0.00 | 0.00 | 0.00 | 68 | 1015.8 |
| 20260510132955 | 74 | 337 | 0.0 | 2.6 | 0.00 | 0.00 | 0.00 | 69 | 1016.0 |
| 20260510132453 | 73 | 196 | 0.0 | 3.5 | 0.00 | 0.00 | 0.00 | 67 | 1016.0 |
| 20260510131949 | 73 | 114 | 0.0 | 4.3 | 0.00 | 0.00 | 0.00 | 67 | 1016.1 |
| 20260510131448 | 73 | 165 | 3.5 | 3.5 | 0.00 | 0.00 | 0.00 | 70 | 1015.9 |
| 20260510130944 | 71 | 275 | 0.0 | 4.3 | 0.00 | 0.00 | 0.00 | 76 | 1015.8 |
| 20260510130441 | 71 | 171 | 1.7 | 4.3 | 0.00 | 0.00 | 0.00 | 74 | 1015.8 |
| 20260510125938 | 71 | 160 | 2.6 | 2.6 | 0.00 | 0.00 | 0.00 | 76 | 1015.9 |
| 20260510125434 | 69 | 281 | 1.7 | 2.6 | 0.00 | 0.00 | 0.00 | 80 | 1015.6 |
| 20260510124931 | 69 | 212 | 1.7 | 6.1 | 0.00 | 0.00 | 0.00 | 78 | 1015.8 |
| 20260510124427 | 68 | 282 | 0.0 | 2.6 | 0.00 | 0.00 | 0.00 | 82 | 1015.6 |
| 20260510123924 | 68 | 223 | 1.7 | 3.5 | 0.00 | 0.00 | 0.00 | 81 | 1015.6 |
| 20260510123420 | 68 | 208 | 0.0 | 2.6 | 0.00 | 0.00 | 0.00 | 82 | 1015.5 |
| 20260510122916 | 67 | 150 | 1.7 | 4.3 | 0.00 | 0.00 | 0.00 | 87 | 1015.6 |
| 20260510122411 | 66 | 95 | 0.9 | 3.5 | 0.00 | 0.00 | 0.00 | 89 | 1015.5 |
| 20260510121908 | 65 | 177 | 0.0 | 2.6 | 0.00 | 0.00 | 0.00 | 91 | 1015.5 |
| 20260510121405 | 64 | 235 | 0.9 | 3.5 | 0.00 | 0.00 | 0.00 | 92 | 1015.3 |
| 20260510120903 | 64 | 246 | 0.0 | 2.6 | 0.00 | 0.00 | 0.00 | 92 | 1015.2 |
| 20260510120400 | 64 | 239 | 0.0 | 1.7 | 0.00 | 0.00 | 0.00 | 92 | 1015.2 |
| 20260510115855 | 63 | 203 | 0.9 | 2.6 | 0.00 | 0.00 | 0.00 | 93 | 1015.2 |
| 20260510115352 | 62 | 171 | 0.0 | 1.7 | 0.00 | 0.00 | 0.00 | 96 | 1015.3 |
| 20260510114848 | 61 | 241 | 0.9 | 1.7 | 0.00 | 0.00 | 0.00 | 97 | 1015.1 |
| 20260510114346 | 60 | 201 | 0.9 | 2.6 | 0.00 | 0.00 | 0.00 | 98 | 1015.4 |
| 20260510113846 | 60 | 232 | 0.0 | 2.6 | 0.00 | 0.00 | 0.00 | 98 | 1015.0 |
| 20260510113342 | 59 | 243 | 0.0 | 2.6 | 0.00 | 0.00 | 0.00 | 99 | 1015.2 |
| 20260510112839 | 59 | 217 | 0.0 | 1.7 | 0.00 | 0.00 | 0.00 | 99 | 1014.9 |
| 20260510112336 | 60 | 174 | 0.9 | 1.7 | 0.00 | 0.00 | 0.00 | 99 | 1014.7 |
| 20260510111832 | 60 | 151 | 0.9 | 1.7 | 0.00 | 0.00 | 0.00 | 99 | 1014.6 |
| 20260510111329 | 59 | 205 | 0.0 | 1.7 | 0.00 | 0.00 | 0.00 | 99 | 1014.6 |
| 20260510110828 | 59 | 216 | 1.7 | 3.5 | 0.00 | 0.00 | 0.00 | 99 | 1014.5 |
| 20260510110326 | 59 | 168 | 2.6 | 3.5 | 0.00 | 0.00 | 0.00 | 99 | 1014.3 |
| 20260510105822 | 59 | 196 | 2.6 | 7.0 | 0.00 | 0.00 | 0.00 | 99 | 1014.2 |
| 20260510105322 | 59 | 183 | 1.7 | 4.3 | 0.00 | 0.00 | 0.00 | 99 | 1014.2 |
| 20260510104818 | 59 | 221 | 0.0 | 4.3 | 0.00 | 0.00 | 0.00 | 99 | 1014.3 |
| 20260510104316 | 59 | 235 | 0.0 | 2.6 | 0.00 | 0.00 | 0.00 | 99 | 1014.1 |
| 20260510103812 | 59 | 318 | 0.0 | 2.6 | 0.00 | 0.00 | 0.00 | 99 | 1013.9 |
| 20260510103309 | 59 | 266 | 1.7 | 2.6 | 0.00 | 0.00 | 0.00 | 99 | 1013.7 |
| 20260510102804 | 59 | 94 | 0.0 | 1.7 | 0.00 | 0.00 | 0.00 | 99 | 1013.8 |
| 20260510102300 | 59 | 137 | 0.9 | 2.6 | 0.00 | 0.00 | 0.00 | 99 | 1013.6 |
| 20260510101757 | 59 | 177 | 0.0 | 2.6 | 0.00 | 0.00 | 0.00 | 99 | 1013.5 |
| 20260510101256 | 59 | 255 | 0.0 | 2.6 | 0.00 | 0.00 | 0.00 | 99 | 1013.5 |
| 20260510100751 | 59 | 253 | 0.0 | 2.6 | 0.00 | 0.00 | 0.00 | 99 | 1013.5 |
| 20260510100249 | 59 | 243 | 0.0 | 1.7 | 0.00 | 0.00 | 0.00 | 99 | 1013.2 |
| 20260510095744 | 59 | 287 | 1.7 | 1.7 | 0.00 | 0.00 | 0.00 | 99 | 1013.3 |
| 20260510095240 | 59 | 254 | 0.9 | 2.6 | 0.00 | 0.00 | 0.00 | 99 | 1013.4 |
| 20260510094739 | 59 | 233 | 0.0 | 2.6 | 0.00 | 0.00 | 0.00 | 99 | 1013.4 |
| 20260510094235 | 59 | 264 | 2.6 | 3.5 | 0.00 | 0.00 | 0.00 | 99 | 1013.4 |
| 20260510093730 | 59 | 264 | 1.7 | 2.6 | 0.00 | 0.00 | 0.00 | 99 | 1013.4 |
| 20260510093228 | 59 | 241 | 0.0 | 1.7 | 0.00 | 0.00 | 0.00 | 99 | 1013.4 |
| 20260510092724 | 59 | 243 | 0.0 | 3.5 | 0.00 | 0.00 | 0.00 | 99 | 1013.4 |
| 20260510092220 | 59 | 247 | 1.7 | 2.6 | 0.00 | 0.00 | 0.00 | 99 | 1013.2 |
| 20260510091716 | 59 | 196 | 1.7 | 3.5 | 0.00 | 0.00 | 0.00 | 99 | 1013.3 |
| 20260510091213 | 59 | 164 | 0.9 | 2.6 | 0.00 | 0.00 | 0.00 | 99 | 1013.1 |
| 20260510090709 | 60 | 194 | 1.7 | 1.7 | 0.00 | 0.00 | 0.00 | 99 | 1012.9 |
| 20260510090206 | 60 | 170 | 0.0 | 2.6 | 0.00 | 0.00 | 0.00 | 99 | 1013.2 |
| 20260510085701 | 60 | 234 | 0.0 | 1.7 | 0.00 | 0.00 | 0.00 | 99 | 1013.2 |
| 20260510085156 | 60 | 232 | 0.0 | 2.6 | 0.00 | 0.00 | 0.00 | 99 | 1012.9 |
| 20260510084653 | 60 | 234 | 0.0 | 1.7 | 0.00 | 0.00 | 0.00 | 99 | 1012.9 |
| 20260510084149 | 60 | 176 | 0.0 | 0.9 | 0.00 | 0.00 | 0.00 | 99 | 1012.9 |
| 20260510083646 | 60 | 227 | 0.0 | 0.9 | 0.00 | 0.00 | 0.00 | 99 | 1012.8 |
| 20260510083143 | 60 | 252 | 0.0 | 1.7 | 0.00 | 0.00 | 0.00 | 99 | 1012.7 |
| 20260510082639 | 61 | 255 | 0.9 | 2.6 | 0.00 | 0.00 | 0.00 | 99 | 1012.9 |
| 20260510082135 | 61 | 230 | 1.7 | 2.6 | 0.00 | 0.00 | 0.00 | 99 | 1012.8 |
| 20260510081630 | 61 | 248 | 1.7 | 2.6 | 0.00 | 0.00 | 0.00 | 99 | 1012.6 |
| 20260510081126 | 61 | 237 | 0.9 | 2.6 | 0.00 | 0.00 | 0.00 | 99 | 1012.5 |
| 20260510080625 | 61 | 224 | 0.9 | 2.6 | 0.00 | 0.00 | 0.00 | 99 | 1012.5 |
| 20260510080122 | 61 | 223 | 1.7 | 2.6 | 0.00 | 0.00 | 0.00 | 99 | 1012.3 |
| 20260510075620 | 61 | 262 | 1.7 | 2.6 | 0.00 | 0.00 | 0.00 | 99 | 1012.3 |
| 20260510075117 | 61 | 269 | 1.7 | 2.6 | 0.00 | 0.00 | 0.00 | 99 | 1012.5 |
| 20260510074613 | 60 | 207 | 0.0 | 0.9 | 0.00 | 0.00 | 0.00 | 99 | 1012.4 |
| 20260510074109 | 61 | 258 | 0.0 | 1.7 | 0.00 | 0.00 | 0.00 | 99 | 1012.4 |
| 20260510073559 | 61 | 190 | 0.9 | 2.6 | 0.00 | 0.00 | 0.00 | 99 | 1012.3 |
| 20260510073057 | 61 | 221 | 0.0 | 2.6 | 0.00 | 0.00 | 0.00 | 99 | 1012.2 |
| 20260510072553 | 61 | 244 | 0.9 | 2.6 | 0.00 | 0.00 | 0.00 | 99 | 1012.3 |
| 20260510072049 | 61 | 242 | 1.7 | 5.2 | 0.00 | 0.00 | 0.00 | 99 | 1012.6 |
| 20260510071545 | 60 | 227 | 2.6 | 3.5 | 0.00 | 0.00 | 0.00 | 99 | 1012.4 |
| 20260510071044 | 60 | 235 | 1.7 | 2.6 | 0.00 | 0.00 | 0.00 | 99 | 1012.2 |
| 20260510070540 | 60 | 258 | 0.0 | 2.6 | 0.00 | 0.00 | 0.00 | 99 | 1012.2 |
| 20260510070037 | 60 | 226 | 2.6 | 3.5 | 0.00 | 0.00 | 0.00 | 99 | 1012.2 |
| 20260510065533 | 60 | 232 | 2.6 | 3.5 | 0.00 | 0.00 | 0.00 | 99 | 1011.9 |
| 20260510065029 | 60 | 243 | 0.0 | 2.6 | 0.00 | 0.00 | 0.00 | 99 | 1012.0 |
| 20260510064526 | 60 | 95 | 0.0 | 1.7 | 0.00 | 0.00 | 0.00 | 99 | 1012.2 |
| 20260510064023 | 60 | 182 | 0.0 | 1.7 | 0.00 | 0.00 | 0.00 | 99 | 1011.9 |
| 20260510063520 | 60 | 170 | 0.0 | 1.7 | 0.00 | 0.00 | 0.00 | 99 | 1012.0 |
| 20260510063017 | 60 | 142 | 0.0 | 2.6 | 0.00 | 0.00 | 0.00 | 99 | 1012.2 |
| 20260510062512 | 61 | 156 | 1.7 | 2.6 | 0.00 | 0.00 | 0.00 | 99 | 1011.9 |
| 20260510062008 | 61 | 161 | 1.7 | 3.5 | 0.00 | 0.00 | 0.00 | 99 | 1012.2 |
| 20260510061505 | 61 | 166 | 1.7 | 3.5 | 0.00 | 0.00 | 0.00 | 99 | 1012.4 |
| 20260510061001 | 61 | 143 | 0.9 | 2.6 | 0.00 | 0.00 | 0.00 | 99 | 1012.3 |
| 20260510060458 | 61 | 153 | 2.6 | 3.5 | 0.00 | 0.00 | 0.00 | 99 | 1012.5 |
| 20260510055954 | 61 | 150 | 2.6 | 3.5 | 0.00 | 0.00 | 0.00 | 99 | 1012.2 |
| 20260510055450 | 61 | 136 | 1.7 | 3.5 | 0.00 | 0.00 | 0.00 | 99 | 1012.3 |
| 20260510054948 | 61 | 123 | 0.9 | 2.6 | 0.00 | 0.00 | 0.00 | 99 | 1012.4 |
| 20260510054443 | 61 | 107 | 0.0 | 2.6 | 0.00 | 0.00 | 0.00 | 98 | 1012.3 |
| 20260510053938 | 61 | 184 | 0.0 | 2.6 | 0.00 | 0.00 | 0.00 | 98 | 1012.6 |
| 20260510053434 | 61 | 182 | 0.0 | 1.7 | 0.00 | 0.00 | 0.00 | 98 | 1012.7 |
| 20260510052931 | 61 | 155 | 0.0 | 2.6 | 0.00 | 0.00 | 0.00 | 98 | 1012.8 |
| 20260510052426 | 61 | 146 | 2.6 | 2.6 | 0.00 | 0.00 | 0.00 | 98 | 1012.8 |
| 20260510051923 | 61 | 135 | 1.7 | 2.6 | 0.00 | 0.00 | 0.00 | 98 | 1012.8 |
| 20260510051420 | 61 | 158 | 2.6 | 3.5 | 0.00 | 0.00 | 0.00 | 98 | 1012.8 |
| 20260510050916 | 61 | 166 | 0.0 | 2.6 | 0.00 | 0.00 | 0.00 | 98 | 1012.7 |
| 20260510050413 | 61 | 186 | 0.0 | 1.7 | 0.00 | 0.00 | 0.00 | 98 | 1012.9 |
| 20260510045910 | 61 | 170 | 0.0 | 1.7 | 0.00 | 0.00 | 0.00 | 97 | 1012.9 |
| 20260510045407 | 62 | 117 | 0.0 | 2.6 | 0.00 | 0.00 | 0.00 | 97 | 1012.6 |
| 20260510044904 | 62 | 183 | 0.0 | 2.6 | 0.00 | 0.00 | 0.00 | 97 | 1012.8 |
| 20260510044401 | 62 | 161 | 0.9 | 1.7 | 0.00 | 0.00 | 0.00 | 97 | 1012.7 |
| 20260510043857 | 62 | 84 | 0.0 | 1.7 | 0.00 | 0.00 | 0.00 | 97 | 1012.9 |
| 20260510043353 | 62 | 169 | 0.0 | 1.7 | 0.00 | 0.00 | 0.00 | 96 | 1013.0 |
| 20260510042852 | 62 | 165 | 0.0 | 1.7 | 0.00 | 0.00 | 0.00 | 96 | 1012.8 |
| 20260510042347 | 62 | 147 | 0.9 | 4.3 | 0.00 | 0.00 | 0.00 | 96 | 1013.0 |
| 20260510041843 | 62 | 186 | 0.9 | 1.7 | 0.00 | 0.00 | 0.00 | 96 | 1012.7 |
| 20260510041340 | 62 | 90 | 0.0 | 1.7 | 0.00 | 0.00 | 0.00 | 96 | 1012.8 |
| 20260510040838 | 62 | 126 | 1.7 | 2.6 | 0.00 | 0.00 | 0.00 | 96 | 1012.9 |
| 20260510040334 | 62 | 73 | 0.0 | 1.7 | 0.00 | 0.00 | 0.00 | 95 | 1012.7 |
| 20260510035830 | 62 | 130 | 0.0 | 0.9 | 0.00 | 0.00 | 0.00 | 95 | 1012.7 |
| 20260510035326 | 62 | 175 | 0.0 | 0.9 | 0.00 | 0.00 | 0.00 | 95 | 1012.4 |
| 20260510034822 | 63 | 63 | 0.0 | 1.7 | 0.00 | 0.00 | 0.00 | 95 | 1012.3 |
| 20260510034320 | 63 | 78 | 0.0 | 1.7 | 0.00 | 0.00 | 0.00 | 94 | 1012.8 |
| 20260510033816 | 63 | 91 | 0.0 | 2.6 | 0.00 | 0.00 | 0.00 | 93 | 1012.5 |
| 20260510033313 | 63 | 157 | 0.0 | 2.6 | 0.00 | 0.00 | 0.00 | 93 | 1012.5 |
| 20260510032810 | 64 | 198 | 0.0 | 1.7 | 0.00 | 0.00 | 0.00 | 93 | 1012.2 |
| 20260510032306 | 64 | 6 | 0.0 | 1.7 | 0.00 | 0.00 | 0.00 | 92 | 1012.3 |
| 20260510031802 | 64 | 78 | 0.0 | 0.9 | 0.00 | 0.00 | 0.00 | 92 | 1012.2 |
| 20260510031257 | 64 | 167 | 0.0 | 1.7 | 0.00 | 0.00 | 0.00 | 90 | 1012.3 |
| 20260510030751 | 65 | 123 | 0.0 | 2.6 | 0.00 | 0.00 | 0.00 | 90 | 1012.4 |
| 20260510030249 | 65 | 152 | 0.0 | 2.6 | 0.00 | 0.00 | 0.00 | 89 | 1012.3 |
| 20260510025746 | 65 | 216 | 0.0 | 1.7 | 0.00 | 0.00 | 0.00 | 89 | 1012.0 |
| 20260510025244 | 66 | 261 | 0.0 | 2.6 | 0.00 | 0.00 | 0.00 | 88 | 1012.1 |
| 20260510024739 | 65 | 190 | 0.0 | 4.3 | 0.00 | 0.00 | 0.00 | 88 | 1012.1 |
| 20260510024236 | 66 | 41 | 0.0 | 2.6 | 0.00 | 0.00 | 0.00 | 88 | 1012.5 |
| 20260510023732 | 66 | 92 | 0.0 | 2.6 | 0.00 | 0.00 | 0.00 | 86 | 1012.1 |
| 20260510023224 | 67 | 213 | 0.9 | 4.3 | 0.00 | 0.00 | 0.00 | 85 | 1012.2 |
| 20260510022719 | 67 | 236 | 0.0 | 4.3 | 0.00 | 0.00 | 0.00 | 85 | 1012.1 |
| 20260510022214 | 67 | 247 | 1.7 | 7.0 | 0.00 | 0.00 | 0.00 | 84 | 1011.9 |
| 20260510021709 | 68 | 276 | 1.7 | 3.5 | 0.00 | 0.00 | 0.00 | 84 | 1012.0 |
| 20260510021207 | 68 | 281 | 1.7 | 2.6 | 0.00 | 0.00 | 0.00 | 83 | 1012.1 |
| 20260510020702 | 68 | 289 | 2.6 | 4.3 | 0.00 | 0.00 | 0.00 | 83 | 1011.8 |
| 20260510020202 | 68 | 260 | 1.7 | 3.5 | 0.00 | 0.00 | 0.00 | 83 | 1011.8 |
| 20260510015658 | 68 | 257 | 2.6 | 5.2 | 0.00 | 0.00 | 0.00 | 82 | 1011.7 |
| 20260510015155 | 68 | 265 | 2.6 | 6.1 | 0.00 | 0.00 | 0.00 | 83 | 1011.7 |
| 20260510014650 | 67 | 216 | 0.0 | 1.7 | 0.00 | 0.00 | 0.00 | 83 | 1011.7 |
| 20260510014148 | 68 | 258 | 0.0 | 2.6 | 0.00 | 0.00 | 0.00 | 82 | 1011.5 |
| 20260510013643 | 68 | 272 | 0.9 | 4.3 | 0.00 | 0.00 | 0.00 | 82 | 1011.5 |
| 20260510013139 | 68 | 195 | 0.0 | 4.3 | 0.00 | 0.00 | 0.00 | 81 | 1011.4 |
| 20260510012638 | 68 | 220 | 3.5 | 3.5 | 0.00 | 0.00 | 0.00 | 82 | 1011.3 |
| 20260510012134 | 68 | 54 | 0.9 | 4.3 | 0.00 | 0.00 | 0.00 | 81 | 1011.2 |
| 20260510011629 | 68 | 209 | 0.0 | 3.5 | 0.00 | 0.00 | 0.00 | 81 | 1011.0 |
| 20260510011125 | 68 | 265 | 0.0 | 2.6 | 0.00 | 0.00 | 0.00 | 80 | 1010.9 |
| 20260510010621 | 68 | 245 | 0.9 | 4.3 | 0.00 | 0.00 | 0.00 | 80 | 1011.1 |
| 20260510010119 | 68 | 274 | 0.0 | 2.6 | 0.00 | 0.00 | 0.00 | 79 | 1011.4 |
| 20260510005614 | 68 | 187 | 0.0 | 2.6 | 0.00 | 0.00 | 0.00 | 79 | 1011.3 |
| 20260510005112 | 68 | 167 | 0.0 | 1.7 | 0.00 | 0.00 | 0.00 | 78 | 1010.9 |
| 20260510004609 | 69 | 252 | 0.0 | 2.6 | 0.00 | 0.00 | 0.00 | 76 | 1011.2 |
| 20260510004107 | 69 | 241 | 1.7 | 2.6 | 0.00 | 0.00 | 0.00 | 75 | 1011.0 |
| 20260510003604 | 69 | 277 | 0.0 | 4.3 | 0.00 | 0.00 | 0.00 | 75 | 1010.9 |
| 20260510003100 | 69 | 345 | 0.0 | 3.5 | 0.00 | 0.00 | 0.00 | 74 | 1011.2 |
| 20260510002554 | 69 | 258 | 1.7 | 2.6 | 0.00 | 0.00 | 0.00 | 74 | 1011.2 |
| 20260510002051 | 69 | 206 | 0.0 | 1.7 | 0.00 | 0.00 | 0.00 | 75 | 1010.7 |
| 20260510001549 | 69 | 240 | 0.0 | 4.3 | 0.00 | 0.00 | 0.00 | 75 | 1010.8 |
| 20260510001048 | 70 | 165 | 0.0 | 0.9 | 0.00 | 0.00 | 0.00 | 74 | 1010.5 |
| 20260510000542 | 71 | 225 | 0.0 | 3.5 | 0.00 | 0.00 | 0.00 | 72 | 1010.7 |
| 20260510000039 | 71 | 252 | 2.6 | 4.3 | 0.00 | 0.00 | 0.00 | 72 | 1010.5 |
| 20260509235536 | 71 | 227 | 1.7 | 6.1 | 0.00 | 0.00 | 0.00 | 72 | 1010.4 |
| 20260509235033 | 71 | 280 | 1.7 | 2.6 | 0.00 | 0.00 | 0.00 | 71 | 1010.3 |
| 20260509234529 | 71 | 277 | 2.6 | 4.3 | 0.00 | 0.00 | 0.00 | 70 | 1010.4 |
| 20260509234027 | 71 | 257 | 1.7 | 4.3 | 0.00 | 0.00 | 0.00 | 70 | 1009.9 |
| 20260509233524 | 72 | 259 | 3.5 | 4.3 | 0.00 | 0.00 | 0.00 | 69 | 1010.1 |
| 20260509233021 | 72 | 268 | 1.7 | 2.6 | 0.00 | 0.00 | 0.00 | 69 | 1010.0 |
| 20260509232518 | 72 | 270 | 1.7 | 5.2 | 0.00 | 0.00 | 0.00 | 68 | 1010.1 |
| 20260509232015 | 72 | 259 | 0.0 | 4.3 | 0.00 | 0.00 | 0.00 | 68 | 1010.1 |
| 20260509231511 | 72 | 241 | 3.5 | 5.2 | 0.00 | 0.00 | 0.00 | 68 | 1010.0 |
| 20260509231009 | 72 | 281 | 1.7 | 5.2 | 0.00 | 0.00 | 0.00 | 67 | 1010.0 |
| 20260509230505 | 73 | 274 | 0.0 | 2.6 | 0.00 | 0.00 | 0.00 | 67 | 1010.0 |
| 20260509230002 | 73 | 274 | 1.7 | 4.3 | 0.00 | 0.00 | 0.00 | 67 | 1010.1 |
| 20260509225458 | 73 | 251 | 2.6 | 5.2 | 0.00 | 0.00 | 0.00 | 66 | 1010.0 |
| 20260509224954 | 73 | 257 | 3.5 | 7.8 | 0.00 | 0.00 | 0.00 | 66 | 1010.1 |
| 20260509224449 | 73 | 234 | 2.6 | 7.8 | 0.00 | 0.00 | 0.00 | 66 | 1010.0 |
| 20260509223946 | 73 | 215 | 2.6 | 5.2 | 0.00 | 0.00 | 0.00 | 66 | 1010.1 |
| 20260509223443 | 73 | 269 | 2.6 | 4.3 | 0.00 | 0.00 | 0.00 | 65 | 1010.2 |
| 20260509222941 | 73 | 237 | 1.7 | 3.5 | 0.00 | 0.00 | 0.00 | 66 | 1010.2 |
| 20260509222436 | 73 | 240 | 3.5 | 7.0 | 0.00 | 0.00 | 0.00 | 65 | 1010.0 |
| 20260509221932 | 73 | 276 | 5.2 | 7.0 | 0.00 | 0.00 | 0.00 | 65 | 1010.2 |
| 20260509221429 | 73 | 266 | 1.7 | 3.5 | 0.00 | 0.00 | 0.00 | 65 | 1010.1 |
| 20260509220924 | 73 | 276 | 0.0 | 2.6 | 0.00 | 0.00 | 0.00 | 64 | 1010.1 |
| 20260509220420 | 74 | 310 | 0.0 | 7.8 | 0.00 | 0.00 | 0.00 | 63 | 1009.9 |
| 20260509215917 | 75 | 277 | 2.6 | 9.6 | 0.00 | 0.00 | 0.00 | 60 | 1010.0 |
| 20260509215412 | 76 | 306 | 1.7 | 3.5 | 0.00 | 0.00 | 0.00 | 60 | 1010.0 |
| 20260509214910 | 76 | 221 | 2.6 | 4.3 | 0.00 | 0.00 | 0.00 | 59 | 1009.9 |
| 20260509214407 | 75 | 216 | 2.6 | 7.0 | 0.00 | 0.00 | 0.00 | 61 | 1009.6 |
| 20260509213904 | 76 | 230 | 3.5 | 5.2 | 0.00 | 0.00 | 0.00 | 61 | 1009.3 |
| 20260509213359 | 75 | 147 | 1.7 | 5.2 | 0.00 | 0.00 | 0.00 | 60 | 1009.6 |
| 20260509212857 | 74 | 226 | 3.5 | 9.6 | 0.00 | 0.00 | 0.00 | 62 | 1009.6 |
| 20260509212354 | 74 | 252 | 1.7 | 4.3 | 0.00 | 0.00 | 0.00 | 62 | 1009.6 |
| 20260509211850 | 75 | 234 | 2.6 | 12.2 | 0.00 | 0.00 | 0.00 | 61 | 1009.7 |
| 20260509211341 | 76 | 214 | 2.6 | 7.0 | 0.00 | 0.00 | 0.00 | 60 | 1009.8 |
| 20260509210837 | 74 | 251 | 2.6 | 6.1 | 0.00 | 0.00 | 0.00 | 62 | 1009.7 |
| 20260509210335 | 74 | 222 | 3.5 | 5.2 | 0.00 | 0.00 | 0.00 | 61 | 1009.7 |
| 20260509205834 | 74 | 253 | 2.6 | 10.4 | 0.00 | 0.00 | 0.00 | 61 | 1009.7 |
| 20260509205329 | 75 | 209 | 2.6 | 7.8 | 0.00 | 0.00 | 0.00 | 60 | 1009.7 |
| 20260509204826 | 77 | 268 | 2.6 | 7.8 | 0.00 | 0.00 | 0.00 | 58 | 1009.8 |
| 20260509204322 | 76 | 290 | 1.7 | 9.6 | 0.00 | 0.00 | 0.00 | 58 | 1009.9 |
| 20260509203819 | 77 | 216 | 6.1 | 11.3 | 0.00 | 0.00 | 0.00 | 58 | 1009.5 |
| 20260509203316 | 76 | 227 | 0.9 | 7.0 | 0.00 | 0.00 | 0.00 | 59 | 1009.6 |
| 20260509202812 | 76 | 227 | 4.3 | 7.8 | 0.00 | 0.00 | 0.00 | 58 | 1009.9 |
| 20260509202309 | 78 | 16 | 4.3 | 7.0 | 0.00 | 0.00 | 0.00 | 56 | 1009.9 |
| 20260509201807 | 76 | 303 | 3.5 | 9.6 | 0.00 | 0.00 | 0.00 | 58 | 1009.9 |
| 20260509201305 | 75 | 241 | 7.8 | 13.9 | 0.00 | 0.00 | 0.00 | 59 | 1009.9 |
| 20260509200801 | 76 | 227 | 2.6 | 7.0 | 0.00 | 0.00 | 0.00 | 58 | 1009.9 |
| 20260509200256 | 76 | 255 | 3.5 | 8.7 | 0.00 | 0.00 | 0.00 | 60 | 1010.0 |
| 20260509195752 | 76 | 285 | 4.3 | 7.8 | 0.00 | 0.00 | 0.00 | 58 | 1009.9 |
| 20260509195247 | 76 | 221 | 5.2 | 13.0 | 0.00 | 0.00 | 0.00 | 58 | 1009.9 |
| 20260509194742 | 75 | 239 | 7.0 | 10.4 | 0.00 | 0.00 | 0.00 | 59 | 1010.0 |
| 20260509194239 | 75 | 274 | 2.6 | 4.3 | 0.00 | 0.00 | 0.00 | 61 | 1010.0 |
| 20260509193736 | 75 | 258 | 3.5 | 6.1 | 0.00 | 0.00 | 0.00 | 61 | 1010.1 |
| 20260509193235 | 75 | 266 | 7.8 | 7.8 | 0.00 | 0.00 | 0.00 | 60 | 1010.0 |
| 20260509192732 | 74 | 293 | 2.6 | 7.8 | 0.00 | 0.00 | 0.00 | 61 | 1010.1 |
| 20260509192227 | 75 | 245 | 6.1 | 7.8 | 0.00 | 0.00 | 0.00 | 59 | 1010.0 |
| 20260509191723 | 76 | 248 | 4.3 | 10.4 | 0.00 | 0.00 | 0.00 | 58 | 1010.2 |
| 20260509191219 | 76 | 266 | 4.3 | 6.1 | 0.00 | 0.00 | 0.00 | 58 | 1010.4 |
| 20260509190715 | 76 | 259 | 3.5 | 7.0 | 0.00 | 0.00 | 0.00 | 57 | 1010.4 |
| 20260509190213 | 77 | 288 | 2.6 | 11.3 | 0.00 | 0.00 | 0.00 | 58 | 1010.5 |
| 20260509185710 | 76 | 247 | 2.6 | 9.6 | 0.00 | 0.00 | 0.00 | 60 | 1010.8 |
| 20260509185206 | 74 | 239 | 1.7 | 7.0 | 0.00 | 0.00 | 0.00 | 63 | 1010.9 |
| 20260509184704 | 74 | 33 | 0.0 | 6.1 | 0.00 | 0.00 | 0.00 | 61 | 1010.9 |
| 20260509184201 | 73 | 265 | 7.8 | 9.6 | 0.00 | 0.00 | 0.00 | 62 | 1011.0 |
| 20260509183657 | 75 | 280 | 6.1 | 7.8 | 0.00 | 0.00 | 0.00 | 60 | 1010.9 |
| 20260509183152 | 75 | 283 | 6.1 | 10.4 | 0.00 | 0.00 | 0.00 | 60 | 1011.0 |
| 20260509182648 | 75 | 174 | 6.1 | 17.4 | 0.00 | 0.00 | 0.00 | 59 | 1010.9 |
| 20260509182146 | 75 | 172 | 2.6 | 7.0 | 0.00 | 0.00 | 0.00 | 62 | 1010.8 |
| 20260509181643 | 73 | 198 | 2.6 | 5.2 | 0.00 | 0.00 | 0.00 | 62 | 1011.1 |
| 20260509181141 | 74 | 238 | 6.1 | 9.6 | 0.00 | 0.00 | 0.00 | 61 | 1011.1 |
| 20260509180637 | 73 | 168 | 1.7 | 7.0 | 0.00 | 0.00 | 0.00 | 64 | 1011.0 |
| 20260509180134 | 73 | 237 | 4.3 | 15.6 | 0.00 | 0.00 | 0.00 | 62 | 1011.1 |
| 20260509175629 | 73 | 229 | 5.2 | 16.5 | 0.00 | 0.00 | 0.00 | 61 | 1011.2 |
| 20260509175127 | 73 | 193 | 4.3 | 18.2 | 0.00 | 0.00 | 0.00 | 63 | 1011.4 |
| 20260509174622 | 74 | 275 | 5.2 | 14.8 | 0.00 | 0.00 | 0.00 | 66 | 1011.3 |
| 20260509174118 | 73 | 169 | 1.7 | 6.1 | 0.00 | 0.00 | 0.00 | 64 | 1011.5 |
| 20260509173614 | 74 | 234 | 4.3 | 13.0 | 0.00 | 0.00 | 0.00 | 64 | 1011.4 |
| 20260509173109 | 73 | 266 | 0.0 | 5.2 | 0.00 | 0.00 | 0.00 | 66 | 1011.6 |
| 20260509172607 | 73 | 247 | 2.6 | 7.8 | 0.00 | 0.00 | 0.00 | 64 | 1011.5 |
| 20260509172103 | 72 | 224 | 4.3 | 13.9 | 0.00 | 0.00 | 0.00 | 65 | 1011.5 |
| 20260509171559 | 73 | 217 | 4.3 | 5.2 | 0.00 | 0.00 | 0.00 | 64 | 1011.6 |
| 20260509171055 | 72 | 221 | 3.5 | 6.1 | 0.00 | 0.00 | 0.00 | 66 | 1011.9 |
| 20260509170551 | 73 | 247 | 2.6 | 8.7 | 0.00 | 0.00 | 0.00 | 64 | 1011.9 |
| 20260509170047 | 73 | 246 | 1.7 | 7.8 | 0.00 | 0.00 | 0.00 | 66 | 1012.0 |
| 20260509165546 | 72 | 298 | 2.6 | 5.2 | 0.00 | 0.00 | 0.00 | 65 | 1012.0 |
| 20260509165041 | 73 | 293 | 3.5 | 7.8 | 0.00 | 0.00 | 0.00 | 65 | 1012.0 |
| 20260509164538 | 72 | 233 | 3.5 | 11.3 | 0.00 | 0.00 | 0.00 | 64 | 1011.9 |
| 20260509164033 | 73 | 325 | 3.5 | 8.7 | 0.00 | 0.00 | 0.00 | 63 | 1012.1 |
| 20260509163532 | 72 | 203 | 0.9 | 9.6 | 0.00 | 0.00 | 0.00 | 64 | 1011.9 |
| 20260509163031 | 73 | 270 | 6.1 | 11.3 | 0.00 | 0.00 | 0.00 | 62 | 1012.0 |